Banff, Alberta

12:56 PM MDT on May 25, 2018 (GMT -0600)
Banff

Weather History for CWZG - December, 2013

Change the Weather History Date:

Monday, December 16, 2013

  Actual Average (WUND) Record (WUND)
Temperature  
Mean Temperature 32 °F -  
Max Temperature 34 °F - - (-1)
Min Temperature 30 °F - - (-1)
Degree Days  
Heating Degree Days 33    
Moisture  
Dew Point 21 °F    
Average Humidity 66    
Maximum Humidity 98    
Minimum Humidity 49    
Precipitation  
Precipitation 0.03 in - - ()
Sea Level Pressure  
Sea Level Pressure 30.11 in    
Wind  
Wind Speed 6 mph ()    
Max Wind Speed 9 mph    
Max Gust Speed 23 mph    
Averages and records for this station are not official NWS values.
T = Trace of Precipitation, MM = Missing Value Source: Averaged Metar Reports

Daily Weather History Graph

Daily Weather History Graph

Search for Another Location

Airport or City:

Astronomy

Dec. 16, 2013 Rise Set
Actual Time 8:40 AM MST 4:35 PM MST
Civil Twilight 8:01 AM MST 5:14 PM MST
Nautical Twilight 7:18 AM MST 5:57 PM MST
Astronomical Twilight 6:37 AM MST 6:38 PM MST
Moon 4:35 PM MST (12/16) 7:46 AM MST (12/16)
Length of Visible Light 9h 13m
Length of Day
7h 54m
Full, 100% of the Moon is Illuminated
Dec 16
Full
Dec 17
Full
Dec 25
Last Quarter
Jan 1
New
Jan 7
First Quarter

Hourly Weather History & Observations

Time (MST) Temp. Windchill Dew Point Humidity Pressure Visibility Wind Dir Wind Speed Gust Speed Precip Events Conditions
12:00 AM 30.9 °F 25.2 °F 30.4 °F 98% 29.94 in - WSW 5.8 mph - 0.01 in   Unknown
1:00 AM 31.1 °F 23.7 °F 30.0 °F 96% 29.95 in - WSW 8.1 mph 23.0 mph N/A   Unknown
2:00 AM 32.9 °F 28.5 °F 28.2 °F 83% 29.97 in - West 4.6 mph - 0.01 in   Unknown
3:00 AM 31.1 °F 23.7 °F 27.3 °F 86% 29.99 in - West 8.1 mph 17.3 mph N/A   Unknown
4:00 AM 30.9 °F 24.3 °F 26.4 °F 83% 29.99 in - West 6.9 mph - N/A   Unknown
5:00 AM 30.4 °F 25.6 °F 25.2 °F 81% 30.00 in - WSW 4.6 mph - N/A   Unknown
6:00 AM 30.7 °F 24.9 °F 24.4 °F 77% 30.02 in - West 5.8 mph - N/A   Unknown
7:00 AM 31.8 °F 24.6 °F 22.8 °F 69% 30.03 in - West 8.1 mph - N/A   Unknown
8:00 AM 30.9 °F 26.2 °F 23.5 °F 74% 30.07 in - WSW 4.6 mph - N/A   Unknown
9:00 AM 30.4 °F 24.5 °F 23.2 °F 75% 30.09 in - WSW 5.8 mph - N/A   Unknown
10:00 AM 31.6 °F 25.1 °F 19.4 °F 61% 30.10 in - WSW 6.9 mph - N/A   Unknown
11:00 AM 33.1 °F 26.9 °F 19.4 °F 57% 30.12 in - West 6.9 mph 17.3 mph 0.02 in   Unknown
12:00 PM 33.4 °F 26.6 °F 19.4 °F 56% 30.13 in - WSW 8.1 mph 18.4 mph N/A   Unknown
1:00 PM 34.0 °F 28.0 °F 18.9 °F 54% 30.14 in - WSW 6.9 mph 21.9 mph N/A   Unknown
2:00 PM 34.0 °F 26.6 °F 18.3 °F 53% 30.15 in - WSW 9.2 mph 19.6 mph N/A   Unknown
3:00 PM 33.4 °F 27.3 °F 18.5 °F 54% 30.18 in - West 6.9 mph - N/A   Unknown
4:00 PM 33.6 °F 27.5 °F 17.1 °F 51% 30.19 in - WSW 6.9 mph 17.3 mph N/A   Unknown
5:00 PM 31.3 °F 26.6 °F 16.0 °F 53% 30.22 in - West 4.6 mph - N/A   Unknown
6:00 PM 31.3 °F 26.6 °F 17.1 °F 56% 30.22 in - WSW 4.6 mph - N/A   Unknown
7:00 PM 31.8 °F 26.2 °F 16.0 °F 52% 30.22 in - WSW 5.8 mph - N/A   Unknown
8:00 PM 31.8 °F 26.2 °F 14.5 °F 49% 30.23 in - WSW 5.8 mph - N/A   Unknown
9:00 PM 31.5 °F 25.8 °F 15.6 °F 52% 30.22 in - WSW 5.8 mph - N/A   Unknown
10:00 PM 31.6 °F 26.0 °F 15.8 °F 52% 30.22 in - WSW 5.8 mph - N/A   Unknown
11:00 PM 31.5 °F 25.8 °F 15.6 °F 52% 30.19 in - WSW 5.8 mph - N/A   Unknown